IW5CTE-13 Weather Reports


time (UTC)temp
C
wind
direction
speed
KPH
gust
KPH
rain 1hr
cm
rain 24hr
cm
rain mn
cm
humidity
%
barometer
mb
20260503180732 18 0.0 0.0 0.00 0.00 0.00 70 1019.7
20260503175732 18 0.0 0.0 0.00 0.00 0.00 69 1019.6
20260503174732 19 0.0 0.0 0.00 0.00 0.00 67 1019.5
20260503173732 19 0.0 0.0 0.00 0.00 0.00 63 1019.5
20260503172732 19 0.0 0.0 0.00 0.00 0.00 67 1019.5
20260503171732 20 0.0 0.0 0.00 0.00 0.00 65 1019.5
20260503170732 20 0.0 0.0 0.00 0.00 0.00 63 1019.4
20260503150732 20 0.0 0.0 0.00 0.00 0.00 45 1019.6
20260503130732 21 0.0 0.0 0.00 0.00 0.00 51 1021.0
20260503110732 22 0.0 0.0 0.00 0.00 0.00 54 1021.7
20260503080732 22 0.0 0.0 0.00 0.00 0.00 50 1021.5
20260503072732 21 0.0 0.0 0.00 0.00 0.00 56 1021.7
20260503071732 20 0.0 0.0 0.00 0.00 0.00 59 1021.8
20260503070732 19 0.0 0.0 0.00 0.00 0.00 64 1021.9
20260503054732 13 0.0 0.0 0.00 0.00 0.00 76 1022.2
20260503053732 12 0.0 0.0 0.00 0.00 0.00 75 1022.2
20260503052731 12 0.0 0.0 0.00 0.00 0.00 74 1022.3
20260503051732 12 0.0 0.0 0.00 0.00 0.00 73 1022.2
20260503050731 12 0.0 0.0 0.00 0.00 0.00 73 1022.2
20260503045732 12 0.0 0.0 0.00 0.00 0.00 72 1022.2
20260503044731 12 0.0 0.0 0.00 0.00 0.00 71 1022.0
20260503043732 12 0.0 0.0 0.00 0.00 0.00 72 1022.1
20260503042732 12 0.0 0.0 0.00 0.00 0.00 72 1022.1
20260503041731 11 0.0 0.0 0.00 0.00 0.00 72 1021.9
20260503040732 12 0.0 0.0 0.00 0.00 0.00 72 1021.9
20260503035732 11 0.0 0.0 0.00 0.00 0.00 72 1021.9
20260503034732 12 0.0 0.0 0.00 0.00 0.00 72 1021.9
20260503033732 12 0.0 0.0 0.00 0.00 0.00 72 1021.8
20260503032732 12 0.0 0.0 0.00 0.00 0.00 69 1021.7
20260503031732 12 0.0 0.0 0.00 0.00 0.00 70 1021.8
20260503030731 12 0.0 0.0 0.00 0.00 0.00 70 1021.7
20260503025732 12 0.0 0.0 0.00 0.00 0.00 70 1021.8
20260503024731 12 0.0 0.0 0.00 0.00 0.00 68 1021.9
20260503023732 12 0.0 0.0 0.00 0.00 0.00 68 1021.8
20260503022731 12 0.0 0.0 0.00 0.00 0.00 68 1021.8
20260503021731 12 0.0 0.0 0.00 0.00 0.00 69 1021.7
20260503020732 12 0.0 0.0 0.00 0.00 0.00 68 1021.7
20260503015732 12 0.0 0.0 0.00 0.00 0.00 68 1021.8
20260503014731 13 0.0 0.0 0.00 0.00 0.00 68 1021.9
20260503013732 12 0.0 0.0 0.00 0.00 0.00 69 1021.9
20260503012731 12 0.0 0.0 0.00 0.00 0.00 69 1022.1
20260503011732 13 0.0 0.0 0.00 0.00 0.00 68 1022.1
20260503010732 13 0.0 0.0 0.00 0.00 0.00 69 1022.1
20260503005731 13 0.0 0.0 0.00 0.00 0.00 69 1022.1
20260503004732 13 0.0 0.0 0.00 0.00 0.00 70 1022.1
20260503003732 13 0.0 0.0 0.00 0.00 0.00 72 1022.1
20260503002732 13 0.0 0.0 0.00 0.00 0.00 68 1022.3
20260503001732 14 0.0 0.0 0.00 0.00 0.00 66 1022.5
20260503000732 14 0.0 0.0 0.00 0.00 0.00 68 1022.4
20260502235731 14 0.0 0.0 0.00 0.00 0.00 66 1022.6
20260502234732 14 0.0 0.0 0.00 0.00 0.00 64 1022.6
20260502233731 14 0.0 0.0 0.00 0.00 0.00 64 1022.6
20260502232731 14 0.0 0.0 0.00 0.00 0.00 61 1022.6
20260502231732 15 0.0 0.0 0.00 0.00 0.00 60 1022.6
20260502230732 15 0.0 0.0 0.00 0.00 0.00 59 1022.7
20260502225732 15 0.0 0.0 0.00 0.00 0.00 58 1022.8
20260502224732 15 0.0 0.0 0.00 0.00 0.00 57 1022.9
20260502223731 15 0.0 0.0 0.00 0.00 0.00 55 1022.9
20260502222732 15 0.0 0.0 0.00 0.00 0.00 55 1022.9
20260502221732 15 0.0 0.0 0.00 0.00 0.00 55 1022.9
20260502220732 15 0.0 0.0 0.00 0.00 0.00 55 1022.9
20260502215732 15 0.0 0.0 0.00 0.00 0.00 55 1022.8
20260502214731 15 0.0 0.0 0.00 0.00 0.00 54 1022.7
20260502213732 15 0.0 0.0 0.00 0.00 0.00 52 1022.6
20260502212732 15 0.0 0.0 0.00 0.00 0.00 52 1022.6
20260502211732 16 0.0 0.0 0.00 0.00 0.00 50 1022.6
20260502210731 16 0.0 0.0 0.00 0.00 0.00 51 1022.6
20260502205731 16 0.0 0.0 0.00 0.00 0.00 52 1022.5
20260502204732 16 0.0 0.0 0.00 0.00 0.00 50 1022.5
20260502203732 16 0.0 0.0 0.00 0.00 0.00 49 1022.6
20260502202732 16 0.0 0.0 0.00 0.00 0.00 49 1022.7
20260502201732 16 0.0 0.0 0.00 0.00 0.00 50 1022.7
20260502200732 17 0.0 0.0 0.00 0.00 0.00 47 1022.7
20260502195732 17 0.0 0.0 0.00 0.00 0.00 46 1022.7
20260502194732 17 0.0 0.0 0.00 0.00 0.00 45 1022.7
20260502193731 17 0.0 0.0 0.00 0.00 0.00 46 1022.5
20260502192732 17 0.0 0.0 0.00 0.00 0.00 48 1022.5
20260502191731 18 0.0 0.0 0.00 0.00 0.00 47 1022.4
20260502190732 18 0.0 0.0 0.00 0.00 0.00 47 1022.3
20260502185731 18 0.0 0.0 0.00 0.00 0.00 43 1022.2
20260502184732 18 0.0 0.0 0.00 0.00 0.00 47 1022.2
20260502183732 18 0.0 0.0 0.00 0.00 0.00 45 1022.2
20260502182732 18 0.0 0.0 0.00 0.00 0.00 41 1022.0
20260502181731 18 0.0 0.0 0.00 0.00 0.00 34 1021.8